Weather History for Cherry Point, NC

Change the Weather History Date:

Saturday, January 19, 2013

  Actual Average Record
Temperature  
Mean Temperature 48 °F -  
Max Temperature 61 °F 51 °F 72 °F (2001)
Min Temperature 34 °F 32 °F 12 °F (2005)
Degree Days  
Heating Degree Days 18    
Moisture  
Dew Point 34 °F    
Average Humidity 67    
Maximum Humidity 89    
Minimum Humidity 39    
Precipitation  
Precipitation 0.00 in - - ()
Sea Level Pressure  
Sea Level Pressure 30.37 in    
Wind  
Wind Speed 3 mph ()    
Max Wind Speed 7 mph    
Max Gust Speed -    
Visibility 9.6 miles    
Events      
Averages and records for this station are not official NWS values.
T = Trace of Precipitation, MM = Missing Value Source: Averaged Metar Reports

Daily Weather History Graph

Daily Weather History Graph

Search for Another Location

Airport:

Trip Planner

Search our weather history database for the weather conditions in past years. The results will help you decide how hot, cold, wet, or windy it might be!

Date:

Astronomy

Jan. 19, 2013 Rise Set
Actual Time 7:13 AM EST 5:23 PM EST
Civil Twilight 6:46 AM EST 5:50 PM EST
Nautical Twilight 6:15 AM EST 6:21 PM EST
Astronomical Twilight 5:45 AM EST 6:51 PM EST
Moon 11:45 AM EST (1/19) 12:49 AM EST (1/19)
Length of Visible Light 11h 04m
Length of Day
10h 10m
First Quarter, 57% of the Moon is Illuminated
Jan 19
First Quarter
Jan 26
Full
Feb 3
Last Quarter
Feb 10
New
Feb 17
First Quarter

Hourly Weather History & Observations

Time (EST) Temp. Windchill Dew Point Humidity Pressure Visibility Wind Dir Wind Speed Gust Speed Precip Events Conditions
12:54 AM 37.0 °F 34.5 °F 27.0 °F 67% 30.50 in 10.0 mi NNE 3.5 mph - N/A   Clear
1:54 AM 36.0 °F 32.1 °F 27.0 °F 70% 30.51 in 10.0 mi North 4.6 mph - N/A   Clear
2:54 AM 37.0 °F 31.6 °F 27.0 °F 67% 30.49 in 10.0 mi NNE 6.9 mph - N/A   Clear
3:54 AM 37.0 °F 32.4 °F 28.0 °F 70% 30.48 in 10.0 mi North 5.8 mph - N/A   Clear
4:54 AM 35.1 °F 31.0 °F 28.9 °F 78% 30.47 in 10.0 mi NE 4.6 mph - N/A   Clear
5:54 AM 36.0 °F 33.3 °F 28.0 °F 73% 30.48 in 10.0 mi North 3.5 mph - N/A   Clear
6:54 AM 34.0 °F 31.0 °F 28.0 °F 79% 30.48 in 10.0 mi North 3.5 mph - N/A   Clear
7:54 AM 37.0 °F 32.4 °F 28.9 °F 73% 30.48 in 8.0 mi North 5.8 mph - N/A   Partly Cloudy
8:54 AM 43.0 °F 39.5 °F 28.0 °F 56% 30.48 in 10.0 mi NNE 5.8 mph - N/A   Partly Cloudy
9:54 AM 46.9 °F - 23.0 °F 39% 30.49 in 10.0 mi NE 4.6 mph - N/A   Partly Cloudy
10:54 AM 51.1 °F - 28.9 °F 43% 30.46 in 10.0 mi NNE 5.8 mph - N/A   Scattered Clouds
11:54 AM 52.0 °F - 32.0 °F 47% 30.42 in 10.0 mi Calm Calm - N/A   Scattered Clouds
12:54 PM 55.0 °F - 34.0 °F 45% 30.37 in 10.0 mi Calm Calm - N/A   Partly Cloudy
1:54 PM 57.0 °F - 36.0 °F 45% 30.33 in 10.0 mi Calm Calm - N/A   Partly Cloudy
2:54 PM 61.0 °F - 39.9 °F 46% 30.30 in 10.0 mi Calm Calm - N/A   Partly Cloudy
3:54 PM 60.1 °F - 39.9 °F 47% 30.28 in 10.0 mi Calm Calm - N/A   Partly Cloudy
4:54 PM 57.0 °F - 43.0 °F 59% 30.27 in 10.0 mi SSE 6.9 mph - N/A   Partly Cloudy
5:54 PM 51.1 °F - 43.0 °F 74% 30.26 in 10.0 mi South 4.6 mph - N/A   Clear
6:54 PM 48.9 °F - 42.1 °F 77% 30.27 in 10.0 mi Calm Calm - N/A   Clear
7:54 PM 45.0 °F - 41.0 °F 86% 30.27 in 10.0 mi Calm Calm - N/A   Clear
8:54 PM 42.1 °F - 39.0 °F 89% 30.25 in 8.0 mi Calm Calm - N/A   Clear
9:54 PM 43.0 °F - 39.9 °F 89% 30.24 in 10.0 mi Calm Calm - N/A   Clear
10:54 PM 42.1 °F - 39.0 °F 89% 30.22 in 10.0 mi Calm Calm - N/A   Scattered Clouds
11:54 PM 41.0 °F 39.0 °F 37.9 °F 89% 30.19 in 5.0 mi West 3.5 mph - N/A   Clear